[[{"header":{"parameterUnit":"m.s-1","parameterCategory":1,"la1":30.2991,"la2":30.254,"lo1":-89.0895,"lo2":-89.0444,"dy":0.0017,"dx":0.0017,"nx":28,"ny":28,"refTime":"2024-12-18T09:00:00:Z","depth":0,"parameterNumber":2,"parameterNumberName":"U-component_of_WINDS"},"data":[0,0,0,0,0,0,0,0,0,0,0,0,0,0,0,0,0,0,0,0,0,0,0,0,0,0,0,0,0,0,0,0,0,0,0,0,0,0,0,0,0,0,0,0,0,0,0,0,0,0,0,0,0,0,0,0,0,0,-0.6786,-0.6786,0,-0.6784,-0.6784,-0.6784,-0.6727,-0.6725,-0.6724,-0.6723,-0.6724,-0.6726,-0.6727,0,0,0,0,0,0,0,0,0,0,0,0,0,-0.6743,-0.6744,-0.6786,-0.6786,-0.6786,-0.6784,-0.6784,-0.6784,-0.6727,-0.6725,-0.6724,-0.6722,-0.6724,-0.6725,-0.6727,0,0,0,0,0,0,0,0,0,0,0,0,0,-0.6754,-0.6745,-0.6786,-0.6757,-0.6755,-0.6784,-0.6784,-0.6784,-0.6728,-0.6725,-0.6723,-0.6721,-0.6723,-0.6725,-0.6727,-0.6786,0,0,-0.6734,-0.6735,0,0,0,0,0,0,0,0,-0.6753,-0.6755,-0.6762,-0.676,-0.6757,-0.6754,-0.677,-0.6785,-0.6728,-0.6738,-0.6723,-0.672,-0.6736,-0.6737,-0.6742,-0.6786,-0.6786,-0.6734,-0.6735,-0.6736,-0.6737,0,0,0,0,0,0,0,-0.6753,-0.6755,-0.6786,-0.6762,-0.6759,-0.6745,-0.6744,-0.6772,-0.675,-0.6737,-0.6733,-0.6733,-0.6734,-0.674,-0.6741,-0.6786,-0.6734,-0.6736,-0.6737,-0.6738,-0.6877,-0.6879,0,0,0,0,0,0,-0.6755,-0.6755,-0.6786,-0.6786,-0.6749,-0.6748,-0.6747,-0.6757,-0.6749,-0.6746,-0.6735,-0.6731,-0.6737,-0.6739,-0.6741,-0.6809,-0.6736,-0.6738,-0.674,-0.6875,-0.6878,-0.688,0,0,0,0,0,0,-0.6755,-0.6759,-0.6786,-0.6769,-0.6772,-0.6751,-0.6763,-0.6758,-0.6763,-0.6748,-0.6744,-0.6745,-0.6735,-0.6738,-0.6775,-0.6808,-0.6739,-0.6741,-0.6872,-0.6876,-0.6879,-0.6945,0,0,0,0,0,0,-0.6754,-0.6759,-0.678,-0.677,-0.6773,-0.6819,-0.6765,-0.676,-0.6767,-0.6761,-0.6756,-0.6753,-0.6734,-0.6772,-0.6777,-0.681,-0.6743,-0.6869,-0.6873,-0.6878,-0.694,-0.695,-0.6959,0,0,0,0,0,-0.6752,-0.68,-0.6782,-0.6786,-0.6799,-0.6821,-0.6823,-0.6799,-0.677,-0.6792,-0.6781,-0.6753,-0.6803,-0.6776,-0.6781,-0.6815,-0.6867,-0.6872,-0.6877,-0.6935,-0.6948,-0.6959,0,0,0,0,0,0,-0.6816,-0.6798,-0.6778,-0.6823,-0.6824,-0.6811,-0.6838,-0.6813,-0.6823,-0.6818,-0.6788,-0.6788,-0.6829,-0.6826,-0.6796,-0.6871,-0.683,-0.6837,-0.6872,-0.6884,-0.6894,-0.6895,-0.6745,0,0,0,0,0,-0.6835,-0.6854,-0.6837,-0.6879,-0.688,-0.6859,-0.6868,-0.6849,-0.6849,-0.685,-0.6842,-0.6844,-0.686,-0.6872,-0.6886,-0.6938,-0.6937,-0.6964,-0.6974,-0.6982,-0.6989,-0.7016,-0.7029,-0.6898,-0.6898,-0.6898,0,0,-0.6876,-0.6868,-0.6882,-0.6892,-0.689,-0.6911,-0.686,-0.6884,-0.6899,-0.6854,-0.6888,-0.6882,-0.6882,-0.6927,-0.6946,-0.6926,-0.7024,-0.6989,-0.6996,-0.6998,-0.7023,-0.7036,-0.7047,-0.6901,-0.6901,-0.69,0,0,-0.696,-0.6955,-0.699,-0.6988,-0.6986,-0.6971,-0.698,-0.697,-0.6965,-0.6997,-0.6964,-0.6982,-0.701,-0.7012,-0.7016,-0.7099,-0.7074,-0.7104,-0.7157,-0.7184,-0.7194,-0.7203,-0.7233,-0.7244,-0.7111,-0.7111,-0.7111,0,-0.7011,-0.7039,-0.7011,-0.7037,-0.7042,-0.7,-0.7035,-0.7035,-0.7038,-0.7043,-0.7019,-0.7053,-0.7051,-0.7095,-0.7115,-0.712,-0.7129,-0.7106,-0.7194,-0.7203,-0.7211,-0.724,-0.7251,-0.7115,-0.7114,-0.7114,-0.7113,0,-0.7102,-0.7123,-0.7151,-0.7153,-0.7161,-0.7192,-0.7168,-0.718,-0.716,-0.7149,-0.7183,-0.7178,-0.719,-0.7198,-0.718,-0.724,-0.7227,-0.7199,-0.7158,-0.7228,-0.7254,-0.7265,-0.712,-0.7119,-0.7118,-0.7117,0,0,-0.7229,-0.7213,-0.7224,-0.7224,-0.7218,-0.7233,-0.7261,-0.7272,-0.7283,-0.7286,-0.731,-0.7334,-0.7307,-0.7313,-0.7294,-0.7317,-0.7384,-0.7286,-0.7286,-0.7305,-0.745,-0.7472,-0.7485,-0.7366,-0.7368,-0.7369,-0.745,0,-0.7311,-0.7357,-0.7331,-0.7382,-0.7401,-0.736,-0.7385,-0.7384,-0.7373,-0.7388,-0.7376,-0.7394,-0.7357,-0.736,-0.7381,-0.7371,-0.7412,-0.7365,-0.7389,-0.739,-0.7391,-0.7499,-0.7522,-0.7599,-0.746,-0.7462,-0.7463,0,-0.7413,-0.7419,-0.7471,-0.7459,-0.7466,-0.7489,-0.7496,-0.751,-0.7508,-0.7499,-0.7504,-0.7479,-0.7506,-0.7464,-0.7502,-0.747,-0.7478,-0.7474,-0.7476,-0.7479,-0.7432,-0.7505,-0.7623,-0.7635,-0.7479,-0.7478,-0.7477,0,-0.7501,-0.7521,-0.7555,-0.7556,-0.7544,-0.7561,-0.7557,-0.7552,-0.756,-0.7566,-0.7571,-0.7581,-0.7587,-0.7595,-0.7574,-0.7545,-0.7615,-0.757,-0.7609,-0.7609,-0.7627,-0.7626,-0.7749,-0.763,-0.763,-0.763,-0.7629,0,-0.7596,-0.763,-0.7594,-0.7615,-0.7652,-0.7622,-0.7659,-0.7651,-0.7647,-0.7666,-0.7631,-0.765,-0.762,-0.7636,-0.7619,-0.7653,-0.7656,-0.765,-0.7645,-0.7654,-0.7655,-0.766,-0.7654,-0.7633,-0.7632,-0.7631,-0.7631,0,-0.7701,-0.7679,-0.7713,-0.7697,-0.7694,-0.7722,-0.771,-0.7729,-0.7714,-0.7739,-0.7743,-0.7722,-0.7739,-0.7718,-0.7733,-0.7722,-0.7769,-0.7755,-0.7769,-0.7766,-0.7806,-0.7803,-0.7937,-0.7953,-0.7823,-0.7824,-0.7825,0,-0.7764,-0.7789,-0.7775,-0.7785,-0.7782,-0.7798,-0.7805,-0.7776,-0.7785,-0.7784,-0.7803,-0.7817,-0.7826,-0.7855,-0.7842,-0.7853,-0.7841,-0.7887,-0.7843,-0.785,-0.7843,-0.7842,-0.7845,-0.7897,-0.7898,-0.79,-0.7901,0,-0.7878,-0.7865,-0.7876,-0.7883,-0.7891,-0.7896,-0.7898,-0.7908,-0.7877,-0.7889,-0.7905,-0.7912,-0.7927,-0.7941,-0.7949,-0.7945,-0.7919,-0.7914,-0.7924,-0.7934,-0.7941,-0.7938,-0.7795,-0.7912,-0.7911,-0.791,-0.7909,-0.7909,-0.7964,-0.7984,-0.7978,-0.7991,-0.7988,-0.7991,-0.8008,-0.7995,-0.8007,-0.8016,-0.7998,-0.8019,-0.8015,-0.8022,-0.8022,-0.8038,-0.8018,-0.8032,-0.8036,-0.804,-0.8046,-0.7937,-0.8039,-0.8039,-0.8038,-0.8038,-0.8038,0,-0.8077,-0.807,-0.8082,-0.8085,-0.8096,-0.8067,-0.8067,-0.8078,-0.8096,-0.8095,-0.8104,-0.8122,-0.8136,-0.8122,-0.8133,-0.8149,-0.8137,-0.8153,-0.8152,-0.8152,-0.8063,-0.8054,-0.8162,-0.8162,-0.8162,-0.8162,-0.8162,-0.8162,-0.8137,-0.8169,-0.8156,-0.8186,-0.8179,-0.8198,-0.8201,-0.8203,-0.8201,-0.8223,-0.8233,-0.8223,-0.8217,-0.8227,-0.8238,-0.8234,-0.824,-0.8261,-0.8252,-0.817,-0.8158,-0.8146,-0.8138,-0.8262,-0.8262,-0.834,-0.834,-0.8341]},{"header":{"parameterUnit":"m.s-1","parameterCategory":1,"la1":30.2991,"la2":30.254,"lo1":-89.0895,"lo2":-89.0444,"dy":0.0017,"dx":0.0017,"nx":28,"ny":28,"refTime":"2024-12-18T09:00:00:Z","depth":0,"parameterNumber":3,"parameterNumberName":"V-component_of_WINDS"},"data":[0,0,0,0,0,0,0,0,0,0,0,0,0,0,0,0,0,0,0,0,0,0,0,0,0,0,0,0,0,0,0,0,0,0,0,0,0,0,0,0,0,0,0,0,0,0,0,0,0,0,0,0,0,0,0,0,0,0,-1.9909,-1.991,0,-1.9944,-1.9944,-1.9945,-1.9932,-1.9931,-1.993,-1.993,-1.9963,-1.9965,-1.9966,0,0,0,0,0,0,0,0,0,0,0,0,0,-1.983,-1.9832,-1.9909,-1.991,-1.991,-1.9944,-1.9944,-1.9945,-1.9932,-1.9931,-1.993,-1.9929,-1.9963,-1.9965,-1.9967,0,0,0,0,0,0,0,0,0,0,0,0,0,-1.9865,-1.9832,-1.9909,-1.9908,-1.9908,-1.9944,-1.9944,-1.9945,-1.9932,-1.9931,-1.993,-1.9929,-1.9962,-1.9964,-1.9967,-2.0005,0,0,-1.9974,-1.9975,0,0,0,0,0,0,0,0,-1.9863,-1.9868,-1.9908,-1.9908,-1.9908,-1.9933,-1.9929,-1.9965,-1.9933,-1.9923,-1.993,-1.9928,-1.9954,-1.9957,-1.9966,-2.0007,-2.0008,-1.9974,-1.9976,-1.9977,-1.9978,0,0,0,0,0,0,0,-1.986,-1.9866,-1.9923,-1.9908,-1.9909,-1.9905,-1.9909,-1.9936,-1.9945,-1.9924,-1.9923,-1.9927,-1.9954,-1.9964,-1.9967,-2.0009,-1.9974,-1.9977,-1.9978,-1.9979,-2.0083,-2.0084,0,0,0,0,0,0,-1.9858,-1.9864,-1.9922,-1.9924,-1.9882,-1.9907,-1.9911,-1.9926,-1.9944,-1.9946,-1.9928,-1.9927,-1.996,-1.9964,-1.9968,-2.0014,-1.9977,-1.9979,-1.9981,-2.0082,-2.0083,-2.0085,0,0,0,0,0,0,-1.9856,-1.9863,-1.992,-1.9894,-1.9901,-1.991,-1.9926,-1.9927,-1.9937,-1.9948,-1.9949,-1.9937,-1.9959,-1.9964,-1.9996,-2.0015,-1.998,-1.9983,-2.008,-2.0082,-2.0084,-2.0108,0,0,0,0,0,0,-1.9854,-1.9863,-1.9878,-1.9894,-1.9902,-1.9949,-1.9928,-1.9929,-1.9942,-1.994,-1.9956,-1.9958,-1.9959,-1.9993,-1.9999,-2.0018,-1.9984,-2.0079,-2.0081,-2.0084,-2.0105,-2.011,-2.0114,0,0,0,0,0,-1.9851,-1.9883,-1.9879,-1.9886,-1.9922,-1.995,-1.9955,-1.9956,-1.9943,-1.9958,-1.9965,-1.9957,-2.0012,-1.9996,-2.0003,-2.0023,-2.0077,-2.0081,-2.0083,-2.0103,-2.0109,-2.0114,0,0,0,0,0,0,-1.9867,-1.9885,-1.9881,-1.9918,-1.9933,-1.9948,-1.9967,-1.9962,-1.998,-1.9978,-1.9978,-1.9982,-2.0015,-2.0022,-2.0004,-2.0061,-2.0043,-2.0047,-2.0056,-2.0061,-2.0066,-2.0064,-1.9986,0,0,0,0,0,-1.9875,-1.9898,-1.9911,-1.9943,-1.9951,-1.9958,-1.997,-1.997,-1.9985,-1.9991,-2.0,-2.0014,-2.0035,-2.0048,-2.0068,-2.0106,-2.0109,-2.0123,-2.0128,-2.0132,-2.0135,-2.0156,-2.0163,-2.0095,-2.0095,-2.0095,0,0,-1.9892,-1.9904,-1.9918,-1.9947,-1.9958,-1.9981,-1.9963,-1.9988,-2.0005,-1.9994,-2.0026,-2.0033,-2.0049,-2.0084,-2.01,-2.0091,-2.0155,-2.0135,-2.0138,-2.014,-2.016,-2.0167,-2.0172,-2.0097,-2.0096,-2.0096,0,0,-1.9934,-1.9945,-1.9973,-1.9985,-2.0003,-2.0008,-2.0014,-2.003,-2.0035,-2.0066,-2.0059,-2.0079,-2.0114,-2.0126,-2.0137,-2.0184,-2.0177,-2.019,-2.0214,-2.0234,-2.024,-2.0244,-2.0262,-2.0268,-2.0193,-2.0194,-2.0194,0,-1.9952,-1.9987,-1.9988,-2.0014,-2.0027,-2.0019,-2.0048,-2.0059,-2.0082,-2.009,-2.008,-2.0125,-2.0135,-2.0173,-2.0185,-2.0193,-2.0201,-2.0188,-2.0239,-2.0244,-2.0248,-2.0264,-2.0271,-2.0195,-2.0195,-2.0195,-2.0195,0,-2.0008,-2.0033,-2.0053,-2.0077,-2.0091,-2.0118,-2.0123,-2.0138,-2.0136,-2.0142,-2.0174,-2.0186,-2.0208,-2.0217,-2.0215,-2.0255,-2.0249,-2.0239,-2.022,-2.0256,-2.0271,-2.0278,-2.0197,-2.0197,-2.0196,-2.0196,0,0,-2.0062,-2.0086,-2.0093,-2.0104,-2.0123,-2.0142,-2.0168,-2.019,-2.0203,-2.0219,-2.0241,-2.0271,-2.0262,-2.0274,-2.0274,-2.0292,-2.0329,-2.028,-2.028,-2.0289,-2.0374,-2.0381,-2.0389,-2.0324,-2.0325,-2.0326,-2.0372,0,-2.0105,-2.0153,-2.0155,-2.0197,-2.022,-2.0213,-2.0236,-2.025,-2.0256,-2.0275,-2.0281,-2.0303,-2.0289,-2.0296,-2.0314,-2.0321,-2.0346,-2.0317,-2.0345,-2.0346,-2.0341,-2.0397,-2.0405,-2.0448,-2.0378,-2.0379,-2.038,0,-2.0163,-2.0182,-2.0227,-2.0244,-2.0253,-2.0274,-2.0294,-2.0313,-2.0329,-2.0331,-2.0345,-2.0342,-2.0369,-2.0349,-2.0386,-2.0366,-2.0378,-2.0383,-2.0384,-2.0387,-2.0365,-2.0401,-2.0461,-2.0468,-2.0389,-2.0389,-2.0388,0,-2.0198,-2.0234,-2.0266,-2.0275,-2.0295,-2.031,-2.0319,-2.0333,-2.0347,-2.0365,-2.0373,-2.0394,-2.0405,-2.042,-2.0423,-2.0408,-2.046,-2.044,-2.0463,-2.0463,-2.0474,-2.0473,-2.0537,-2.0481,-2.0481,-2.048,-2.048,0,-2.0247,-2.0275,-2.0282,-2.0302,-2.0333,-2.0335,-2.0365,-2.0373,-2.0386,-2.0407,-2.0402,-2.0421,-2.0423,-2.0443,-2.0445,-2.0475,-2.048,-2.0483,-2.0483,-2.0484,-2.0483,-2.0491,-2.0488,-2.0482,-2.0482,-2.0481,-2.0481,0,-2.0291,-2.0297,-2.0332,-2.0348,-2.0353,-2.0375,-2.0388,-2.0407,-2.0412,-2.0438,-2.0445,-2.0453,-2.0476,-2.048,-2.0507,-2.0508,-2.0544,-2.0541,-2.0539,-2.0539,-2.0562,-2.056,-2.0633,-2.0643,-2.058,-2.058,-2.0581,0,-2.0322,-2.0344,-2.0363,-2.0377,-2.0386,-2.0409,-2.0423,-2.0425,-2.044,-2.0459,-2.0475,-2.0498,-2.0517,-2.0554,-2.0562,-2.0582,-2.058,-2.0604,-2.0583,-2.0583,-2.0581,-2.058,-2.0582,-2.0609,-2.0609,-2.061,-2.061,0,-2.0377,-2.0379,-2.04,-2.0422,-2.0439,-2.0456,-2.0472,-2.0483,-2.0488,-2.0504,-2.0529,-2.0543,-2.0571,-2.0594,-2.0614,-2.0623,-2.0617,-2.0617,-2.0623,-2.0624,-2.0623,-2.0624,-2.0551,-2.0615,-2.0615,-2.0614,-2.0614,-2.0614,-2.0416,-2.0435,-2.0452,-2.0475,-2.0487,-2.0503,-2.0521,-2.0529,-2.055,-2.0573,-2.0573,-2.0599,-2.0614,-2.0642,-2.0652,-2.0672,-2.0664,-2.0673,-2.0676,-2.0678,-2.0681,-2.0619,-2.0676,-2.0676,-2.0675,-2.0675,-2.0675,0,-2.0471,-2.0482,-2.0503,-2.0526,-2.0544,-2.0538,-2.0556,-2.0571,-2.0595,-2.061,-2.0628,-2.0656,-2.0678,-2.0688,-2.071,-2.0724,-2.0722,-2.073,-2.0729,-2.0731,-2.0686,-2.0679,-2.0731,-2.0731,-2.0731,-2.0731,-2.0731,-2.0731,-2.0502,-2.0534,-2.0538,-2.0576,-2.0586,-2.0613,-2.0624,-2.0638,-2.0649,-2.0681,-2.07,-2.0706,-2.0719,-2.0741,-2.0761,-2.0764,-2.0772,-2.0781,-2.0782,-2.074,-2.0734,-2.0729,-2.0722,-2.0782,-2.0783,-2.0825,-2.0826,-2.0826]}]]